White Mountain, AK

2:37 PM AKDT on March 30, 2017 (GMT -0800)
White Mountain

Weather History for PAWM - March, 2013

Change the Weather History Date:

Tuesday, March 5, 2013

  Actual Average (PAOM) Record (PAOM)
Temperature  
Mean Temperature 32 °F -  
Max Temperature 33 °F 14 °F 37 °F (1984)
Min Temperature 30 °F -2 °F -42 °F (1977)
Degree Days  
Heating Degree Days 34    
Moisture  
Dew Point 31 °F    
Average Humidity 98    
Maximum Humidity 100    
Minimum Humidity 88    
Precipitation  
Precipitation 0.00 in - - ()
Sea Level Pressure  
Sea Level Pressure 29.77 in    
Wind  
Wind Speed 19 mph (SE)    
Max Wind Speed 23 mph    
Max Gust Speed 33 mph    
Visibility 4 miles    
Events Snow    
Averages and records for this station are not official NWS values.
T = Trace of Precipitation, MM = Missing Value Source: NWS Daily Summary

Daily Weather History Graph

Daily Weather History Graph

Search for Another Location

Airport or City:

Trip Planner

Search our weather history database for the weather conditions in past years. The results will help you decide how hot, cold, wet, or windy it might be!

Date:

Astronomy

Mar. 05, 2013 Rise Set
Actual Time 8:46 AM AKST 7:24 PM AKST
Civil Twilight 7:57 AM AKST 8:13 PM AKST
Nautical Twilight 7:01 AM AKST 9:10 PM AKST
Astronomical Twilight 6:02 AM AKST 10:10 PM AKST
Moon 6:04 AM AKST (3/5) 11:22 AM AKST (3/5)
Length of Visible Light 12h 15m
Length of Day
10h 38m
Last Quarter, 39% of the Moon is Illuminated
Mar 5
Last Quarter
Mar 11
New
Mar 19
First Quarter
Mar 27
Full
Apr 2
Last Quarter

Hourly Weather History & Observations

Time (AKST) Temp. Windchill Dew Point Humidity Pressure Visibility Wind Dir Wind Speed Gust Speed Precip Events Conditions
12:58 AM 30.0 °F 17.5 °F 27.0 °F 88% 29.94 in 10.0 mi SE 19.6 mph 26.5 mph N/A   Overcast
1:58 AM 30.9 °F 19.4 °F 28.0 °F 89% 29.92 in 9.0 mi SE 17.3 mph 26.5 mph 0.00 in   Overcast
3:58 AM 30.9 °F 19.8 °F 28.9 °F 92% 29.91 in 7.0 mi SE 16.1 mph - 0.00 in Snow Light Snow
4:48 AM 30.2 °F 18.9 °F 28.4 °F 93% 29.85 in 5.0 mi SE 16.1 mph 21.9 mph 0.00 in Snow Light Snow
4:58 AM 30.0 °F 19.1 °F 28.9 °F 96% 29.88 in 4.0 mi SE 15.0 mph - 0.00 in Snow Light Snow
5:10 AM 30.2 °F 18.9 °F 30.2 °F 100% 29.85 in 2.5 mi SE 16.1 mph 23.0 mph 0.00 in Snow Light Snow
5:25 AM 30.2 °F 17.8 °F 30.2 °F 100% 29.84 in 4.0 mi SE 19.6 mph 26.5 mph 0.00 in Snow Light Snow
5:34 AM 30.2 °F 18.1 °F 30.2 °F 100% 29.84 in 7.0 mi SE 18.4 mph 26.5 mph 0.00 in Snow Light Snow
5:58 AM 30.0 °F 17.5 °F 30.0 °F 100% 29.87 in 6.0 mi SE 19.6 mph 28.8 mph 0.00 in Snow Light Snow
6:06 AM 30.2 °F 18.1 °F 30.2 °F 100% 29.84 in 6.0 mi SE 18.4 mph 27.6 mph 0.00 in Snow Light Snow
6:21 AM 30.2 °F 18.1 °F 30.2 °F 100% 29.83 in 5.0 mi SE 18.4 mph 25.3 mph 0.00 in Snow Light Snow
6:46 AM 30.2 °F 17.8 °F 30.2 °F 100% 29.83 in 8.0 mi SE 19.6 mph 26.5 mph 0.00 in Snow Light Snow
6:57 AM 30.0 °F 17.5 °F 30.0 °F 100% 29.86 in 6.0 mi SE 19.6 mph 26.5 mph 0.00 in Snow Light Snow
7:02 AM 30.2 °F 18.1 °F 30.2 °F 100% 29.82 in 8.0 mi SE 18.4 mph 26.5 mph 0.00 in Snow Light Snow
7:21 AM 30.2 °F 17.8 °F 30.2 °F 100% 29.82 in 7.0 mi SE 19.6 mph 27.6 mph 0.00 in Snow Light Snow
7:51 AM 30.2 °F 17.8 °F 30.2 °F 100% 29.82 in 3.0 mi SE 19.6 mph 28.8 mph 0.00 in Snow Light Snow
7:56 AM 30.2 °F 17.4 °F 30.2 °F 100% 29.81 in 2.5 mi SE 20.7 mph 28.8 mph 0.00 in Snow Light Snow
7:58 AM 30.9 °F 18.7 °F 30.9 °F 100% 29.85 in 2.5 mi SE 19.6 mph 28.8 mph 0.00 in Snow Light Snow
8:09 AM 30.2 °F 17.4 °F 30.2 °F 100% 29.81 in 3.0 mi SE 20.7 mph 28.8 mph 0.00 in Snow Light Snow
8:42 AM 30.2 °F 17.8 °F 30.2 °F 100% 29.81 in 4.0 mi SE 19.6 mph 28.8 mph 0.00 in Snow Light Snow
8:48 AM 30.2 °F 17.4 °F 30.2 °F 100% 29.81 in 2.0 mi SE 20.7 mph 26.5 mph 0.00 in Snow Light Snow
8:58 AM 30.9 °F 18.7 °F 30.0 °F 96% 29.84 in 2.0 mi SE 19.6 mph 27.6 mph 0.00 in Snow Light Snow
9:05 AM 30.2 °F 17.8 °F 30.2 °F 100% 29.81 in 3.0 mi SE 19.6 mph 27.6 mph 0.00 in Snow Light Snow
9:11 AM 30.2 °F 17.1 °F 30.2 °F 100% 29.80 in 4.0 mi SE 21.9 mph 26.5 mph 0.00 in Snow Light Snow
9:34 AM 30.2 °F 17.4 °F 30.2 °F 100% 29.80 in 2.5 mi SE 20.7 mph 28.8 mph 0.00 in Snow Light Snow
9:42 AM 30.2 °F 18.1 °F 30.2 °F 100% 29.80 in 3.0 mi SE 18.4 mph 26.5 mph 0.00 in Snow Light Snow
9:58 AM 30.9 °F 18.7 °F 30.0 °F 96% 29.83 in 4.0 mi SE 19.6 mph 25.3 mph 0.00 in Snow Light Snow
10:13 AM 30.2 °F 18.9 °F 30.2 °F 100% 29.79 in 2.5 mi SE 16.1 mph - 0.00 in Snow Light Snow
10:27 AM 30.2 °F 17.1 °F 30.2 °F 100% 29.79 in 1.8 mi SE 21.9 mph 25.3 mph 0.00 in Snow Light Snow
10:34 AM 30.2 °F 17.8 °F 30.2 °F 100% 29.79 in 1.5 mi SE 19.6 mph 27.6 mph 0.00 in Snow Light Snow
10:39 AM 30.2 °F 18.5 °F 30.2 °F 100% 29.79 in 1.5 mi SE 17.3 mph 27.6 mph 0.00 in Snow Light Snow
10:58 AM 32.0 °F 20.1 °F 30.9 °F 96% 29.83 in 1.2 mi SE 19.6 mph 28.8 mph 0.00 in Snow Light Snow
11:25 AM 32.0 °F 20.8 °F 32.0 °F 100% 29.79 in 2.5 mi SE 17.3 mph 26.5 mph 0.00 in Snow Light Snow
11:29 AM 32.0 °F 20.5 °F 32.0 °F 100% 29.79 in 3.0 mi SE 18.4 mph 26.5 mph 0.00 in Snow Light Snow
11:58 AM 32.0 °F 20.1 °F 32.0 °F 100% 29.82 in 5.0 mi SE 19.6 mph 28.8 mph 0.00 in   Overcast
12:22 PM 32.0 °F 19.8 °F 32.0 °F 100% 29.78 in 2.5 mi SE 20.7 mph 28.8 mph 0.00 in Snow Light Snow
12:32 PM 32.0 °F 19.5 °F 32.0 °F 100% 29.77 in 1.8 mi SE 21.9 mph 29.9 mph 0.00 in Snow Light Snow
12:40 PM 32.0 °F 20.1 °F 32.0 °F 100% 29.77 in 2.5 mi SE 19.6 mph 27.6 mph 0.00 in Snow Light Snow
12:48 PM 32.0 °F 19.5 °F 32.0 °F 100% 29.77 in 3.0 mi SE 21.9 mph 29.9 mph 0.00 in Snow Light Snow
12:54 PM 32.0 °F 20.1 °F 32.0 °F 100% 29.77 in 2.5 mi SE 19.6 mph 27.6 mph 0.00 in Snow Light Snow
12:58 PM 32.0 °F 19.5 °F 32.0 °F 100% 29.81 in 2.5 mi SE 21.9 mph 32.2 mph 0.00 in Snow Light Snow
1:10 PM 32.0 °F 20.1 °F 32.0 °F 100% 29.77 in 1.8 mi SE 19.6 mph 28.8 mph 0.00 in Snow Light Snow
1:19 PM 32.0 °F 19.5 °F 32.0 °F 100% 29.77 in 2.5 mi SE 21.9 mph 31.1 mph 0.00 in Snow Light Snow
1:25 PM 33.8 °F 22.8 °F 32.0 °F 93% 29.77 in 4.0 mi SE 18.4 mph 28.8 mph 0.00 in Snow Light Snow
1:42 PM 33.8 °F 21.6 °F 32.0 °F 93% 29.76 in 6.0 mi SE 23.0 mph 31.1 mph 0.00 in Snow Light Snow
1:58 PM 33.1 °F 21.5 °F 32.0 °F 96% 29.80 in 5.0 mi SE 19.6 mph 31.1 mph 0.00 in Snow Light Snow
2:58 PM 33.1 °F 21.2 °F 32.0 °F 96% 29.78 in 5.0 mi SE 20.7 mph 33.4 mph 0.00 in Snow Light Snow
3:48 PM 33.8 °F 22.5 °F 32.0 °F 93% 29.73 in 4.0 mi SE 19.6 mph 26.5 mph 0.00 in Snow Light Snow
3:58 PM 33.1 °F 21.9 °F 32.0 °F 96% 29.76 in 5.0 mi SE 18.4 mph 26.5 mph 0.00 in Snow Light Snow
4:58 PM 33.1 °F 21.2 °F 32.0 °F 96% 29.75 in 4.0 mi SE 20.7 mph 27.6 mph 0.00 in Snow Light Snow
5:29 PM 33.8 °F 23.5 °F 32.0 °F 93% 29.71 in 4.0 mi SE 16.1 mph - 0.00 in Snow Light Snow
5:38 PM 33.8 °F 22.5 °F 32.0 °F 93% 29.70 in 3.0 mi SE 19.6 mph 25.3 mph 0.00 in Snow Light Snow
5:58 PM 33.1 °F 22.2 °F 32.0 °F 96% 29.73 in 3.0 mi SE 17.3 mph 24.2 mph 0.00 in Snow Light Snow
6:02 PM 33.8 °F 23.2 °F 32.0 °F 93% 29.70 in 2.5 mi SE 17.3 mph 24.2 mph 0.00 in Snow Light Snow
6:25 PM 32.0 °F 20.8 °F 30.2 °F 93% 29.70 in 3.0 mi SE 17.3 mph 21.9 mph 0.00 in Snow Light Snow
6:52 PM 32.0 °F 21.2 °F 30.2 °F 93% 29.69 in 2.0 mi SE 16.1 mph 24.2 mph 0.00 in Snow Light Snow
6:58 PM 32.0 °F 20.1 °F 30.9 °F 96% 29.73 in 2.0 mi SE 19.6 mph 24.2 mph 0.00 in Snow Light Snow
7:11 PM 32.0 °F 21.6 °F 30.2 °F 93% 29.69 in 3.0 mi SE 15.0 mph 24.2 mph 0.00 in Snow Light Snow
7:15 PM 32.0 °F 20.5 °F 30.2 °F 93% 29.69 in 2.5 mi SE 18.4 mph 24.2 mph 0.00 in Snow Light Snow
7:58 PM 30.9 °F 18.7 °F 30.9 °F 100% 29.72 in 4.0 mi ESE 19.6 mph 26.5 mph 0.00 in Snow Light Snow
8:19 PM 30.2 °F 18.1 °F 30.2 °F 100% 29.68 in 6.0 mi SE 18.4 mph 24.2 mph 0.00 in Snow Light Snow
8:58 PM 30.9 °F 19.8 °F 30.9 °F 100% 29.70 in 6.0 mi SE 16.1 mph 24.2 mph 0.00 in Snow Light Snow
9:42 PM 30.2 °F 18.1 °F 30.2 °F 100% 29.66 in 4.0 mi SE 18.4 mph 24.2 mph 0.00 in Snow Light Snow
9:58 PM 30.9 °F 19.1 °F 30.9 °F 100% 29.69 in 4.0 mi SE 18.4 mph 25.3 mph 0.00 in Snow Light Snow
10:10 PM 32.0 °F 20.5 °F 30.2 °F 93% 29.65 in 2.5 mi SE 18.4 mph 24.2 mph 0.00 in Snow Light Snow
10:20 PM 30.2 °F 17.4 °F 30.2 °F 100% 29.66 in 3.0 mi SE 20.7 mph 24.2 mph 0.00 in Snow Light Snow
10:53 PM 30.2 °F 18.1 °F 30.2 °F 100% 29.65 in 2.5 mi SE 18.4 mph 26.5 mph 0.00 in Snow Light Snow
10:57 PM 30.9 °F 19.1 °F 30.9 °F 100% 29.68 in 3.0 mi SE 18.4 mph 25.3 mph 0.00 in Snow Light Snow
11:07 PM 32.0 °F 20.8 °F 30.2 °F 93% 29.65 in 2.5 mi SE 17.3 mph 24.2 mph 0.00 in Snow Light Snow
11:27 PM 30.2 °F 18.5 °F 30.2 °F 100% 29.65 in 3.0 mi SE 17.3 mph 25.3 mph 0.00 in Snow Light Snow
11:38 PM 30.2 °F 18.5 °F 30.2 °F 100% 29.64 in 3.0 mi SE 17.3 mph 23.0 mph 0.00 in   Overcast
11:45 PM 30.2 °F 17.8 °F 30.2 °F 100% 29.64 in 2.5 mi SE 19.6 mph 25.3 mph 0.00 in Snow Light Snow
11:51 PM 30.2 °F 18.1 °F 30.2 °F 100% 29.64 in 3.0 mi SE 18.4 mph 25.3 mph 0.00 in Snow Light Snow
11:58 PM 30.9 °F 18.4 °F 30.9 °F 100% 29.68 in 3.0 mi SE 20.7 mph 28.8 mph 0.00 in Snow Light Snow